Weather History for Buffalo, SD

Change the Weather History Date:

Tuesday, September 2, 2014

  Actual Average Record
Temperature  
Mean Temperature 64 °F 65 °F  
Max Temperature 78 °F 80 °F 95 °F (1998)
Min Temperature 50 °F 50 °F 39 °F (2006)
Degree Days  
Heating Degree Days 1 3  
Month to date heating degree days 6 6  
Since 1 July heating degree days 57 58  
Cooling Degree Days 0 3  
Month to date cooling degree days 0 7  
Year to date cooling degree days 365 478  
Growing Degree Days 14 (Base 50)    
Moisture  
Dew Point 46 °F    
Average Humidity 56    
Maximum Humidity 80    
Minimum Humidity 31    
Precipitation  
Precipitation 0.00 in 0.05 in 0.17 in (1999)
Month to date precipitation 0.10 0.09  
Year to date precipitation 14.47 12.23  
Sea Level Pressure  
Sea Level Pressure 29.77 in    
Wind  
Wind Speed 10 mph (WNW)    
Max Wind Speed 21 mph    
Max Gust Speed 25 mph    
T = Trace of Precipitation, MM = Missing Value Source: NWS Daily Summary

Daily Weather History Graph

Daily Weather History Graph

Search for Another Location

Airport:

Trip Planner

Search our weather history database for the weather conditions in past years. The results will help you decide how hot, cold, wet, or windy it might be!

Date:

Astronomy

Sep. 02, 2014 Rise Set
Actual Time 6:16 AM MDT 7:30 PM MDT
Civil Twilight 5:46 AM MDT 8:00 PM MDT
Nautical Twilight 5:09 AM MDT 8:37 PM MDT
Astronomical Twilight 4:30 AM MDT 9:16 PM MDT
Moon 2:24 PM MDT (9/2) No Moon Set
Length of Visible Light 14h 14m
Length of Day
13h 13m
First Quarter, 53% of the Moon is Illuminated
Sep 2
First Quarter
Sep 8
Full
Sep 15
Last Quarter
Sep 24
New
Oct 1
First Quarter

Hourly Weather History & Observations

Time (MDT) Temp. Dew Point Humidity Pressure Visibility Wind Dir Wind Speed Gust Speed Precip Events Conditions
12:56 AM 52.0 °F 44.1 °F 74% 29.86 in - SW 4.6 mph - N/A   Unknown
1:56 AM 50.0 °F 44.1 °F 80% 29.86 in - WSW 9.2 mph - N/A   Unknown
2:56 AM 50.0 °F 43.0 °F 77% 29.85 in - WSW 9.2 mph - N/A   Unknown
3:56 AM 50.0 °F 43.0 °F 77% 29.84 in - West 9.2 mph - N/A   Unknown
4:56 AM 52.0 °F 44.1 °F 74% 29.82 in - West 10.4 mph - N/A   Unknown
5:56 AM 52.0 °F 44.1 °F 74% 29.82 in - West 12.7 mph - N/A   Unknown
6:56 AM 51.1 °F 44.1 °F 77% 29.83 in - WSW 8.1 mph - N/A   Unknown
7:56 AM 55.0 °F 46.0 °F 72% 29.83 in - WSW 10.4 mph - N/A   Unknown
8:56 AM 60.1 °F 48.0 °F 64% 29.82 in - WSW 6.9 mph - N/A   Unknown
9:56 AM 66.0 °F 46.0 °F 48% 29.81 in - WSW 18.4 mph - N/A   Unknown
10:56 AM 71.1 °F 48.9 °F 45% 29.79 in - West 13.8 mph - N/A   Unknown
11:56 AM 73.9 °F 46.9 °F 38% 29.78 in - NW 15.0 mph - N/A   Unknown
12:56 PM 75.0 °F 46.0 °F 36% 29.78 in - WNW 12.7 mph - N/A   Unknown
1:56 PM 75.9 °F 45.0 °F 33% 29.78 in - Variable 6.9 mph - N/A   Unknown
2:56 PM 77.0 °F 45.0 °F 32% 29.75 in - NW 15.0 mph 20.7 mph N/A   Unknown
3:56 PM 75.9 °F 43.0 °F 31% 29.75 in - NW 8.1 mph - N/A   Unknown
4:56 PM 77.0 °F 44.1 °F 31% 29.72 in - NW 4.6 mph - N/A   Unknown
5:56 PM 75.0 °F 46.0 °F 36% 29.70 in - NNE 6.9 mph - N/A   Unknown
6:56 PM 71.1 °F 50.0 °F 47% 29.70 in - NE 9.2 mph - N/A   Unknown
7:56 PM 64.9 °F 48.0 °F 54% 29.71 in - ENE 11.5 mph - N/A   Unknown
8:56 PM 60.1 °F 48.0 °F 64% 29.71 in - NE 9.2 mph - N/A   Unknown
9:56 PM 57.9 °F 48.0 °F 70% 29.70 in - ENE 10.4 mph - N/A   Unknown
10:56 PM 55.9 °F 46.9 °F 72% 29.68 in - ENE 9.2 mph - N/A   Unknown
11:56 PM 55.9 °F 46.0 °F 69% 29.66 in - ENE 9.2 mph - N/A   Unknown